DAL837 KATL-PHNL

Flight info

Callsign DAL837
Flight time N/A
Altitude 34000
Route CUTTN2 HANKO GAD SMITZ ARG BUM CATTS KP60C LBF BFF KD75U KU75S BPI PIH J54 BOI DSD ONP C1419 HEMLO A332 AUNTI R463 APACK MAGGI3
Aircraft A333/H-SDE3GHIJ2J3J5M1RVWXY/LB2D1

Departure

Time 2026-05-04 14:54
Airport Hartsfield Jackson Atlanta International Airport (KATL)

Arrival

Time N/A
Airport Daniel K. Inouye International Airport (PHNL)
Time Latitude Longitude Altitude Speed Heading
2026-05-04 14:25 33.63943 -84.42622 1039 ft 0 kts 90°
2026-05-04 14:39 33.63943 -84.42623 1039 ft 2 kts 90°
2026-05-04 14:39 33.63943 -84.42654 1039 ft 4 kts 86°
2026-05-04 14:39 33.63940 -84.42686 1039 ft 4 kts 80°
2026-05-04 14:40 33.63919 -84.42738 1039 ft 1 kts 23°
2026-05-04 14:44 33.63921 -84.42737 1039 ft 0 kts 23°
2026-05-04 14:44 33.63923 -84.42736 1039 ft 0 kts 23°
2026-05-04 14:44 33.63931 -84.42735 1039 ft 1 kts
2026-05-04 14:45 33.63949 -84.42735 1039 ft 4 kts
2026-05-04 14:45 33.63991 -84.42735 1039 ft 8 kts
2026-05-04 14:45 33.64055 -84.42735 1039 ft 11 kts
2026-05-04 14:45 33.64139 -84.42735 1039 ft 13 kts
2026-05-04 14:46 33.64240 -84.42735 1039 ft 16 kts
2026-05-04 14:46 33.64347 -84.42735 1039 ft 15 kts
2026-05-04 14:46 33.64446 -84.42729 1039 ft 10 kts 18°
2026-05-04 14:46 33.64466 -84.42690 1039 ft 6 kts 79°
2026-05-04 14:47 33.64468 -84.42639 1039 ft 7 kts 88°
2026-05-04 14:47 33.64469 -84.42573 1039 ft 9 kts 89°
2026-05-04 14:47 33.64471 -84.42492 1039 ft 11 kts 89°
2026-05-04 14:47 33.64472 -84.42398 1039 ft 12 kts 89°
2026-05-04 14:48 33.64474 -84.42292 1039 ft 13 kts 89°
2026-05-04 14:48 33.64498 -84.42218 1039 ft 9 kts 58°
2026-05-04 14:48 33.64530 -84.42149 1039 ft 11 kts 62°
2026-05-04 14:48 33.64554 -84.42071 1039 ft 8 kts 90°
2026-05-04 14:49 33.64552 -84.41996 1039 ft 10 kts 91°
2026-05-04 14:49 33.64550 -84.41906 1039 ft 12 kts 91°
2026-05-04 14:49 33.64548 -84.41802 1039 ft 13 kts 91°
2026-05-04 14:49 33.64545 -84.41686 1040 ft 15 kts 91°
2026-05-04 14:50 33.64543 -84.41558 1040 ft 16 kts 91°
2026-05-04 14:50 33.64542 -84.41420 1040 ft 17 kts 89°
2026-05-04 14:50 33.64544 -84.41273 1040 ft 18 kts 89°
2026-05-04 14:50 33.64546 -84.41115 1039 ft 19 kts 89°
2026-05-04 14:51 33.64546 -84.40953 1039 ft 19 kts 90°
2026-05-04 14:51 33.64545 -84.40793 1039 ft 19 kts 90°
2026-05-04 14:51 33.64558 -84.40642 1038 ft 18 kts 73°
2026-05-04 14:51 33.64581 -84.40586 1038 ft 2 kts 44°
2026-05-04 14:52 33.64612 -84.40574 1037 ft 10 kts 14°
2026-05-04 14:52 33.64669 -84.40589 1036 ft 6 kts 307°
2026-05-04 14:52 33.64678 -84.40629 1036 ft 5 kts 276°
2026-05-04 14:52 33.64678 -84.40654 1036 ft 0 kts 270°
2026-05-04 14:53 33.64677 -84.40914 1039 ft 58 kts 269°
2026-05-04 14:53 33.64678 -84.41599 1040 ft 106 kts 270°
2026-05-04 14:53 33.64677 -84.42661 1037 ft 146 kts 270°
2026-05-04 14:54 33.64678 -84.44016 1120 ft 172 kts 268°
2026-05-04 14:54 33.64699 -84.45428 1699 ft 173 kts 272°
2026-05-04 14:54 33.64885 -84.46877 2215 ft 179 kts 281°
2026-05-04 14:54 33.65162 -84.48386 2433 ft 192 kts 282°
2026-05-04 14:55 33.65468 -84.50009 2567 ft 208 kts 282°
2026-05-04 14:55 33.65799 -84.51791 2776 ft 228 kts 282°
2026-05-04 14:55 33.66157 -84.53712 2965 ft 243 kts 282°
2026-05-04 14:55 33.66531 -84.55736 3365 ft 252 kts 282°
2026-05-04 14:56 33.66909 -84.57808 3825 ft 255 kts 282°
2026-05-04 14:56 33.67276 -84.59908 4315 ft 259 kts 282°
2026-05-04 14:56 33.67640 -84.62036 4800 ft 262 kts 281°
2026-05-04 14:56 33.68004 -84.64185 5285 ft 264 kts 281°
2026-05-04 14:57 33.68369 -84.66336 5753 ft 268 kts 281°
2026-05-04 14:57 33.68743 -84.68548 6221 ft 272 kts 281°
2026-05-04 14:57 33.69123 -84.70793 6716 ft 276 kts 280°
2026-05-04 14:57 33.69507 -84.73060 7215 ft 279 kts 280°
2026-05-04 14:58 33.69903 -84.75350 7717 ft 282 kts 282°
2026-05-04 14:58 33.70443 -84.77633 8252 ft 286 kts 286°
2026-05-04 14:58 33.71052 -84.79921 8770 ft 289 kts 287°
2026-05-04 14:58 33.71682 -84.82235 9298 ft 293 kts 287°
2026-05-04 14:59 33.72311 -84.84547 9819 ft 296 kts 287°
2026-05-04 14:59 33.72955 -84.86924 10225 ft 304 kts 287°
2026-05-04 14:59 33.74318 -84.91977 10632 ft 331 kts 287°
2026-05-04 15:00 33.75040 -84.94659 10819 ft 344 kts 287°
2026-05-04 15:00 33.75786 -84.97432 11077 ft 353 kts 287°
2026-05-04 15:00 33.76543 -85.00254 11513 ft 355 kts 287°
2026-05-04 15:01 33.78058 -85.05900 12646 ft 353 kts 287°
2026-05-04 15:01 33.78813 -85.08724 13069 ft 356 kts 287°
2026-05-04 15:01 33.79565 -85.11536 13506 ft 358 kts 287°
2026-05-04 15:01 33.80328 -85.14393 13996 ft 358 kts 288°
2026-05-04 15:02 33.81090 -85.17248 14425 ft 359 kts 288°
2026-05-04 15:02 33.81747 -85.20146 14837 ft 359 kts 280°
2026-05-04 15:02 33.82024 -85.23134 15253 ft 360 kts 275°
2026-05-04 15:02 33.82170 -85.26145 15661 ft 361 kts 274°
2026-05-04 15:03 33.82298 -85.29163 16055 ft 362 kts 274°
2026-05-04 15:03 33.82426 -85.32187 16457 ft 362 kts 274°
2026-05-04 15:03 33.82556 -85.35218 16835 ft 363 kts 274°
2026-05-04 15:03 33.82688 -85.38258 17218 ft 364 kts 274°
2026-05-04 15:04 33.82821 -85.41270 17601 ft 365 kts 274°
2026-05-04 15:04 33.82955 -85.44325 17951 ft 366 kts 274°
2026-05-04 15:04 33.83089 -85.47392 18295 ft 368 kts 274°
2026-05-04 15:04 33.83223 -85.50472 18618 ft 369 kts 274°
2026-05-04 15:05 33.83357 -85.53561 18936 ft 370 kts 274°
2026-05-04 15:05 33.83489 -85.56650 19233 ft 371 kts 274°
2026-05-04 15:05 33.83622 -85.59754 19539 ft 372 kts 274°
2026-05-04 15:05 33.83776 -85.62868 19838 ft 372 kts 276°
2026-05-04 15:06 33.84242 -85.65929 20105 ft 373 kts 285°
2026-05-04 15:06 33.85006 -85.68917 20406 ft 374 kts 289°
2026-05-04 15:06 33.85904 -85.71859 20696 ft 375 kts 291°
2026-05-04 15:07 33.87832 -85.77662 21277 ft 377 kts 291°
2026-05-04 15:07 33.88810 -85.80594 21590 ft 377 kts 291°
2026-05-04 15:07 33.89774 -85.83527 21924 ft 377 kts 291°
2026-05-04 15:07 33.90727 -85.86472 22203 ft 378 kts 291°
2026-05-04 15:08 33.91674 -85.89434 22457 ft 379 kts 290°
2026-05-04 15:08 33.92617 -85.92407 22727 ft 381 kts 290°
2026-05-04 15:08 33.93562 -85.95394 23008 ft 382 kts 290°
2026-05-04 15:08 33.94506 -85.98387 23261 ft 383 kts 290°
2026-05-04 15:09 33.95453 -86.01391 23516 ft 384 kts 290°
2026-05-04 15:09 33.96403 -86.04404 23776 ft 385 kts 290°
2026-05-04 15:09 33.97356 -86.07429 23986 ft 386 kts 290°
2026-05-04 15:10 33.99279 -86.13507 24419 ft 388 kts 290°
2026-05-04 15:10 34.00243 -86.16549 24629 ft 390 kts 290°
2026-05-04 15:10 34.02173 -86.22642 25011 ft 393 kts 290°
2026-05-04 15:11 34.03148 -86.25726 25211 ft 394 kts 290°
2026-05-04 15:11 34.04123 -86.28815 25455 ft 394 kts 290°
2026-05-04 15:11 34.05100 -86.31912 25688 ft 395 kts 290°
2026-05-04 15:11 34.06077 -86.35015 25889 ft 396 kts 290°
2026-05-04 15:12 34.07056 -86.38128 26104 ft 397 kts 290°
2026-05-04 15:12 34.08037 -86.41249 26320 ft 398 kts 290°
2026-05-04 15:12 34.09018 -86.44375 26522 ft 399 kts 290°
2026-05-04 15:12 34.10000 -86.47506 26747 ft 399 kts 290°
2026-05-04 15:13 34.10971 -86.50605 26938 ft 400 kts 290°
2026-05-04 15:13 34.11958 -86.53759 27151 ft 401 kts 290°
2026-05-04 15:13 34.12946 -86.56919 27358 ft 402 kts 290°
2026-05-04 15:13 34.13937 -86.60091 27549 ft 404 kts 290°
2026-05-04 15:14 34.14928 -86.63267 27743 ft 405 kts 290°
2026-05-04 15:14 34.15920 -86.66450 27949 ft 406 kts 289°
2026-05-04 15:14 34.16914 -86.69642 28157 ft 406 kts 289°
2026-05-04 15:14 34.17909 -86.72841 28394 ft 407 kts 289°
2026-05-04 15:15 34.18892 -86.76006 28614 ft 407 kts 289°
2026-05-04 15:15 34.19888 -86.79216 28803 ft 408 kts 289°
2026-05-04 15:15 34.20888 -86.82440 29003 ft 409 kts 289°
2026-05-04 15:16 34.22889 -86.88905 29382 ft 411 kts 289°
2026-05-04 15:16 34.23892 -86.92151 29563 ft 412 kts 289°
2026-05-04 15:16 34.25902 -86.98668 29902 ft 415 kts 289°
2026-05-04 15:17 34.26895 -87.01893 30084 ft 416 kts 289°
2026-05-04 15:17 34.28917 -87.08468 30391 ft 418 kts 289°
2026-05-04 15:17 34.29929 -87.11767 30530 ft 419 kts 289°
2026-05-04 15:18 34.30945 -87.15078 30664 ft 420 kts 289°
2026-05-04 15:18 34.31959 -87.18390 30821 ft 421 kts 289°
2026-05-04 15:18 34.32977 -87.21715 30942 ft 421 kts 289°
2026-05-04 15:19 34.35013 -87.28379 31289 ft 421 kts 289°
2026-05-04 15:19 34.36026 -87.31704 31497 ft 421 kts 289°
2026-05-04 15:19 34.38048 -87.38346 31935 ft 419 kts 289°
2026-05-04 15:20 34.39040 -87.41611 32170 ft 418 kts 289°
2026-05-04 15:20 34.40047 -87.44910 32374 ft 417 kts 290°
2026-05-04 15:20 34.41238 -87.48117 32597 ft 418 kts 296°
2026-05-04 15:20 34.42669 -87.51186 32821 ft 418 kts 298°
2026-05-04 15:21 34.44160 -87.54210 33034 ft 417 kts 299°
2026-05-04 15:21 34.45678 -87.57200 33305 ft 417 kts 300°
2026-05-04 15:21 34.48767 -87.63192 33606 ft 419 kts 300°
2026-05-04 15:22 34.50313 -87.66187 33832 ft 418 kts 300°
2026-05-04 15:22 34.51832 -87.69137 34034 ft 417 kts 300°
2026-05-04 15:22 34.54861 -87.75050 34075 ft 408 kts 300°
2026-05-04 15:23 34.57843 -87.80897 34074 ft 406 kts 299°
2026-05-04 15:23 34.60814 -87.86739 34067 ft 406 kts 299°
2026-05-04 15:24 34.66737 -87.98409 34075 ft 407 kts 299°
2026-05-04 15:25 34.69701 -88.04261 34070 ft 407 kts 299°
2026-05-04 15:26 34.74147 -88.13057 34062 ft 407 kts 299°
2026-05-04 15:26 34.78572 -88.21833 34059 ft 407 kts 299°
2026-05-04 15:27 34.83010 -88.30659 34056 ft 407 kts 299°
2026-05-04 15:28 34.87443 -88.39494 34054 ft 407 kts 299°
2026-05-04 15:29 34.91865 -88.48332 34052 ft 407 kts 299°
2026-05-04 15:30 35.02141 -88.68956 34053 ft 408 kts 299°
2026-05-04 15:31 35.06562 -88.77865 34045 ft 408 kts 299°
2026-05-04 15:32 35.13411 -88.91713 34035 ft 409 kts 299°
2026-05-04 15:34 35.20747 -89.06607 34028 ft 409 kts 299°
2026-05-04 15:34 35.25123 -89.15523 34034 ft 409 kts 299°
2026-05-04 15:35 35.29519 -89.24503 34024 ft 410 kts 299°
2026-05-04 15:36 35.33910 -89.33496 34025 ft 410 kts 299°
2026-05-04 15:36 35.36831 -89.39491 34023 ft 410 kts 299°
2026-05-04 15:37 35.39754 -89.45500 34018 ft 410 kts 299°
2026-05-04 15:37 35.42654 -89.51472 34018 ft 410 kts 299°
2026-05-04 15:38 35.45571 -89.57489 34000 ft 410 kts 299°
2026-05-04 15:38 35.48481 -89.63505 34002 ft 410 kts 298°
2026-05-04 15:39 35.51394 -89.69535 34004 ft 410 kts 299°
2026-05-04 15:40 35.55733 -89.78540 33999 ft 410 kts 299°
2026-05-04 15:40 35.58639 -89.84581 33997 ft 410 kts 298°
2026-05-04 15:41 35.61540 -89.90625 33995 ft 410 kts 298°
2026-05-04 15:41 35.64437 -89.96670 33992 ft 410 kts 298°
2026-05-04 15:42 35.67334 -90.02725 33981 ft 410 kts 298°
2026-05-04 15:42 35.70206 -90.08742 33982 ft 410 kts 298°
2026-05-04 15:43 35.73098 -90.14807 33979 ft 410 kts 298°
2026-05-04 15:43 35.75984 -90.20872 33991 ft 410 kts 298°
2026-05-04 15:44 35.78866 -90.26940 33979 ft 410 kts 298°
2026-05-04 15:44 35.81747 -90.33017 33982 ft 410 kts 298°
2026-05-04 15:45 35.84605 -90.39056 33981 ft 410 kts 298°
2026-05-04 15:45 35.87481 -90.45143 33974 ft 411 kts 298°
2026-05-04 15:46 35.90366 -90.51261 33971 ft 412 kts 298°
2026-05-04 15:46 35.93242 -90.57372 33971 ft 412 kts 298°
2026-05-04 15:47 35.96117 -90.63490 33965 ft 412 kts 298°
2026-05-04 15:47 35.98987 -90.69609 33966 ft 412 kts 298°
2026-05-04 15:48 36.01836 -90.75693 33965 ft 412 kts 298°
2026-05-04 15:48 36.06135 -90.84896 33962 ft 412 kts 298°
2026-05-04 15:49 36.09003 -90.91049 33962 ft 412 kts 298°
2026-05-04 15:49 36.12131 -90.97001 33958 ft 413 kts 305°
2026-05-04 15:50 36.15631 -91.02599 33955 ft 414 kts 306°
2026-05-04 15:50 36.19224 -91.08179 33955 ft 414 kts 307°
2026-05-04 15:51 36.22826 -91.13760 33952 ft 414 kts 307°
2026-05-04 15:51 36.26416 -91.19352 33947 ft 414 kts 307°
2026-05-04 15:52 36.30002 -91.24960 33940 ft 415 kts 307°
2026-05-04 15:52 36.33587 -91.30577 33941 ft 415 kts 307°
2026-05-04 15:53 36.37143 -91.36159 33935 ft 415 kts 307°
2026-05-04 15:53 36.40722 -91.41785 33934 ft 415 kts 307°
2026-05-04 15:54 36.44300 -91.47418 33924 ft 415 kts 307°
2026-05-04 15:54 36.47874 -91.53056 33926 ft 415 kts 307°
2026-05-04 15:55 36.51446 -91.58698 33918 ft 414 kts 307°
2026-05-04 15:55 36.55006 -91.64329 33912 ft 413 kts 307°
2026-05-04 15:56 36.58535 -91.69924 33913 ft 413 kts 306°
2026-05-04 15:56 36.62083 -91.75557 33918 ft 413 kts 306°
2026-05-04 15:57 36.65635 -91.81207 33903 ft 414 kts 306°
2026-05-04 15:57 36.69177 -91.86848 33923 ft 413 kts 306°
2026-05-04 15:58 36.72724 -91.92507 33925 ft 413 kts 306°
2026-05-04 15:58 36.76257 -91.98152 33919 ft 412 kts 306°
2026-05-04 15:59 36.79779 -92.03792 33923 ft 411 kts 306°
2026-05-04 15:59 36.83270 -92.09390 33914 ft 411 kts 306°
2026-05-04 16:00 36.86785 -92.15036 33908 ft 411 kts 306°
2026-05-04 16:00 36.90294 -92.20683 33902 ft 411 kts 306°
2026-05-04 16:01 36.93804 -92.26339 33885 ft 411 kts 306°
2026-05-04 16:01 36.97315 -92.32007 33889 ft 411 kts 306°
2026-05-04 16:02 37.00782 -92.37614 33876 ft 409 kts 306°
2026-05-04 16:03 37.06001 -92.46071 33861 ft 409 kts 306°
2026-05-04 16:03 37.09476 -92.51714 33860 ft 409 kts 306°
2026-05-04 16:04 37.12945 -92.57358 33852 ft 409 kts 306°
2026-05-04 16:04 37.18123 -92.65799 33850 ft 409 kts 306°
2026-05-04 16:05 37.21593 -92.71467 33855 ft 409 kts 306°
2026-05-04 16:06 37.26764 -92.79932 33834 ft 406 kts 306°
2026-05-04 16:07 37.33638 -92.91218 33820 ft 406 kts 306°
2026-05-04 16:08 37.40475 -93.02482 33813 ft 406 kts 306°
2026-05-04 16:09 37.49030 -93.16631 33811 ft 404 kts 306°
2026-05-04 16:10 37.55807 -93.27882 33807 ft 404 kts 306°
2026-05-04 16:11 37.62594 -93.39187 33796 ft 404 kts 305°
2026-05-04 16:12 37.72741 -93.56160 33790 ft 401 kts 305°
2026-05-04 16:13 37.79437 -93.67411 33783 ft 401 kts 305°
2026-05-04 16:14 37.86138 -93.78707 33762 ft 401 kts 305°
2026-05-04 16:16 37.94484 -93.92830 33764 ft 401 kts 305°
2026-05-04 16:17 38.02821 -94.07001 33760 ft 401 kts 305°
2026-05-04 16:18 38.09482 -94.18367 33758 ft 401 kts 304°
2026-05-04 16:19 38.17746 -94.32522 33761 ft 398 kts 304°
2026-05-04 16:20 38.25423 -94.45727 33755 ft 398 kts 304°
2026-05-04 16:22 38.34004 -94.59583 33743 ft 399 kts 307°
2026-05-04 16:23 38.44454 -94.76064 33740 ft 399 kts 307°
2026-05-04 16:25 38.54863 -94.92636 33745 ft 399 kts 307°
2026-05-04 16:26 38.66968 -95.12010 33737 ft 398 kts 307°
2026-05-04 16:28 38.75597 -95.25892 33726 ft 398 kts 306°
2026-05-04 16:29 38.87637 -95.45364 33721 ft 400 kts 306°
2026-05-04 16:31 38.96257 -95.59374 33721 ft 399 kts 306°
2026-05-04 16:32 39.06532 -95.76158 33726 ft 399 kts 306°
2026-05-04 16:33 39.13414 -95.87450 33716 ft 401 kts 306°
2026-05-04 16:34 39.18571 -95.95938 33704 ft 401 kts 306°
2026-05-04 16:35 39.28825 -96.12884 33697 ft 400 kts 305°
2026-05-04 16:36 39.33021 -96.22229 33906 ft 404 kts 296°
2026-05-04 16:37 39.35564 -96.28762 34114 ft 407 kts 296°
2026-05-04 16:37 39.36823 -96.32042 34306 ft 407 kts 296°
2026-05-04 16:37 39.39318 -96.38541 34710 ft 405 kts 296°
2026-05-04 16:38 39.41822 -96.45049 35143 ft 402 kts 295°
2026-05-04 16:39 39.45559 -96.54763 35549 ft 403 kts 295°
2026-05-04 16:39 39.48049 -96.61250 35690 ft 401 kts 295°
2026-05-04 16:40 39.52976 -96.74130 35696 ft 399 kts 295°
2026-05-04 16:41 39.59093 -96.90202 35696 ft 398 kts 295°
2026-05-04 16:43 39.65205 -97.06348 35691 ft 399 kts 295°
2026-05-04 16:43 39.68865 -97.16057 35691 ft 399 kts 295°